sat.trackr.live / text

‹ back to catalog

STARLINK-34737

NORAD 64933 · 2025-158B

PAYLOAD ACTIVE UNKNOWN

§ Identity

Operator
Country
US
Launch date
2025-07-27
Launch site
AFWTR
Launch vehicle
Mass (kg)
RCS (m²)

Purposes: comms

External: N2YO · Heavens-Above · Gunter

§ Orbital elements

Epoch: 2026-09-20T12:57:06.848640Z

Period
93.90 min
Inclination
97.2821°
Eccentricity
0.0003382
Mean motion
15.33507911 rev/d
Perigee alt
463.0 km
Apogee alt
467.7 km
Semi-major
6,843.5 km
B*
6.0400e-4
RAAN
121.8560°
Arg perigee
88.5439°
Mean anomaly
271.6191°
Rev number
6,471

§ Raw data

STARLINK-347371 64933U 25158B   26263.53966260  .00019516  00000+0  60400-3 0  99962 64933  97.2821 121.8560 0003382  88.5439 271.6191 15.33507911 64712

JSON: /api/v1/satellites/64933 · /tle

For live sub-satellite position, see the globe view (requires WebGL).

§ Visibility from observer

Set your observer location to see the next 7 days of passes ≥ 10°. The values pass through the URL so the page stays shareable.

No JS? Fill the form by hand. The geolocation button needs JavaScript.